Regional Weather Roundup
Issued by NWS Sterling, VA

Home | Current Version | Previous Version | Graphics & Text | Print | Product List | Glossary On
Versions: 1 2 3 4 5 6 7 8 9 10 11 12 13 14 15 16 17 18 19 20 21 22 23 24 25 26 27 28 29 30 31 32 33 34
000
ASUS41 KLWX 220710
RWRLWX

REGIONAL WEATHER ROUNDUP
NATIONAL WEATHER SERVICE BALTIMORE MD/WASHINGTON DC
300 AM EDT WED OCT 22 2014

Note: "FAIR" indicates few or no clouds below 12,000 feet
with no significant weather and/or obstructions to visibility.
 TC=TEMPERATURE CELSIUS

 * =Non NWS site. Station does not report precipitation (e.g. rain,
    snow, etc.), thunder, or fog.

DCZ001-MDZ009-015-VAZ040>042-051-053>054-220800-
WASHINGTON METRO

CITY           SKY/WX    TMP DP  RH WIND       PRES   REMARKS
WASHINGTON NAT LGT RAIN  55  49  80 NW14      29.87F
DULLES         CLOUDY    51  49  92 NW8       29.89F
ANDREWS AFB    LGT RAIN  53  52  96 NW8       29.85F
QUANTICO       CLOUDY    53  49  86 N12       29.88F
COLLEGE PARK*  CLOUDY    54  52  94 NW3       29.86F
LEESBURG*      CLOUDY    52  52 100 NW8       29.90F
MANASSAS*      CLOUDY    52  50  93 NW12      29.88F
GAITHERSBURG*  CLOUDY    52  48  87 CALM      29.91S

$$

MDZ006>007-011-014-220800-
BALTIMORE METRO

CITY           SKY/WX    TMP DP  RH WIND       PRES   REMARKS
BWI AIRPORT    LGT RAIN  54  52  94 NW5       29.86S
MD SCIENCE CTR   N/A     54  51  90 MISG      29.86F
MARTIN STATE   RAIN      54  54 100 NW5       29.87F
ANNAPOLIS      CLOUDY    55  52  89 NW10      29.84F
FORT MEADE*    CLOUDY    52  50  93 N3        29.89S

$$

MDZ012-015-019>023-220800-
MARYLAND EASTERN SHORE

CITY           SKY/WX    TMP DP  RH WIND       PRES   REMARKS
OCEAN CITY     CLOUDY    55  53  93 N3        29.80S
SALISBURY      CLOUDY    57  54  88 CALM      29.81F FOG
BAY BRIDGE AP*   N/A     54  54 100 N13       29.84F
CAMBRIDGE*     CLOUDY    55  52  88 N8        29.82F
EASTON*        CLOUDY    56  56 100 N8        29.86F

$$

MDZ017>025-220800-
SOUTHERN MARYLAND

CITY           SKY/WX    TMP DP  RH WIND       PRES   REMARKS
PATUXENT RIVER CLOUDY    56  52  86 NW10      29.83F
ST INIGOES     PTCLDY    56  50  80 VRB3      29.82F
LEONARDTOWN*   CLOUDY    54  50  87 NW3       29.85F

$$

MDZ003>005-220800-
NORTH CENTRAL MARYLAND

CITY           SKY/WX    TMP DP  RH WIND       PRES   REMARKS
FREDERICK*     DRIZZLE   55  52  88 CALM      29.92S
HAGERSTOWN APT CLOUDY    51  48  89 N7        29.91S
WESTMINSTER*   RAIN      52  48  87 N5        29.88F

$$

MDZ501>502-220800-
WESTERN MARYLAND

CITY           SKY/WX    TMP DP  RH WIND       PRES   REMARKS
OAKLAND*       FOG       39 N/A N/A NW5       29.97S VSB 1/4
CUMBERLAND*    MOCLDY    50  46  87 N6        30.00S

$$

VAZ025>031-220800-
SHENANDOAH VALLEY

CITY           SKY/WX    TMP DP  RH WIND       PRES   REMARKS
WINCHESTER*    CLOUDY    52  45  76 NW9       29.92S
FRONT ROYAL*   CLOUDY    50  45  81 NW6       29.91S
LURAY*         CLOUDY    54  46  76 N7        29.92S
NEW MARKET*    CLOUDY    51  44  79 CALM      29.93S
STAUNTON*      CLOUDY    51  42  71 CALM      29.95S
WAYNESBORO*    CLOUDY    49  40  71 NW6       29.93S

$$

WVZ021-048>050-054>055-220800-
EASTERN WEST VIRGINIA PANHANDLE

CITY           SKY/WX    TMP DP  RH WIND       PRES   REMARKS
MARTINSBURG    CLOUDY    52  46  80 N8        29.92S
PETERSBURG*    CLOUDY   N/A N/A N/A N3        29.98S

$$

VAZ036>039-050-220800-
CENTRAL FOOTHILLS

CITY           SKY/WX    TMP DP  RH WIND       PRES   REMARKS
CHARLOTTESVILL CLOUDY    53  44  71 VRB5      29.90F
CULPEPER*      CLOUDY    54  48  82 NW6       29.90S
ORANGE*        CLOUDY    54  46  76 NW5       29.91S
GORDONSVILLE*  CLOUDY    53  45  75 NW5       29.89S
WARRENTON*     CLOUDY    53  52  95 NW8       29.88S

$$

VAZ055>057-220800-
NORTH AND CENTRAL PIEDMONT

CITY           SKY/WX    TMP DP  RH WIND       PRES   REMARKS
FREDERICKSBRG* CLOUDY    54  52  95 NW7       29.87F
STAFFORD*      CLOUDY    51  51 100 NW7       29.92S

$$

NCZ024-NYZ072-PAZ021-071-VAZ022-071-220800-
OTHER REGIONAL OBSERVATIONS

CITY           SKY/WX    TMP DP  RH WIND       PRES   REMARKS
NEW YORK CITY  CLOUDY    58  53  84 NE8       29.90F
PHILADELPHIA   CLOUDY    57  50  77 N15       29.85F
PITTSBURGH     CLOUDY    48  46  93 N14       30.03R
ROANOKE        CLOUDY    50  37  61 NW14G23   30.00S
RICHMOND       CLOUDY    54  49  83 NW9       29.87R
RALEIGH        PTCLDY    51  39  63 CALM      29.93S

$$

ANZ530>537-220800-
MARINE OBSERVATIONS

STATION/POSITION TIME  TEMP    WIND        PRES
                       AIR SEA DIR/SP/G
                 (UTC) (F)     (DEG/KT/KT) (MB)
THOMAS PT LIGHT  0700   55 64  350/ 14/ 16 1011.3F
BALT KEY BRIDGE  0700   54     350/ 13/ 16 1010.7F
COVE POINT       0700   58      10/ 15/ 20 1009.8F
LEWISETTA        0700   57 65  340/  7/ 10 1009.8F
SOLOMONS ISLAND  0700      66                N/A
PINEY POINT      0700          360/ 13/ 15   N/A

$$




USA.gov is the U.S. government's official web portal to all federal, state and local government web resources and services.